Location: Ahausen
(50.4985°N, 8.2722°E)
Time: 10:51:35
(UTC+00:00)

AO-73 - Visible Passes

Search period start: 25 June 2022 00:00
Search period end: 05 July 2022 00:00
Orbit: 578 x 658 km, 97.6° (Epoch: 24 June)

Date Brightness Start Highest point End Pass type
(mag) Time Alt. Az. Time Alt. Az. Time Alt. Az.
25 Jun ? 02:18:39 10° NE 02:21:04 14° E 02:23:29 10° ESE visible
30 Jun ? 02:07:14 10° ENE 02:08:38 11° E 02:10:03 10° ESE visible
01 Jul ? 02:22:48 10° NE 02:25:37 16° E 02:28:27 10° SE visible
